AIC785 VOMM-VECC

Flight info

Callsign AIC785
Flight time N/A
Altitude 37000
Route MMV Q10 CEA
Aircraft A20N/M-SDE2E3FGHIRWXY/LB1

Departure

Time 2026-04-29 13:34
Airport Chennai International Airport (VOMM)

Arrival

Time N/A
Airport Netaji Subhash Chandra Bose International Airport (VECC)
Time Latitude Longitude Altitude Speed Heading
2026-04-29 13:12 12.98189 80.15923 54 ft 0 kts 160°
2026-04-29 13:23 12.98189 80.15922 26 ft 0 kts 160°
2026-04-29 13:27 12.98194 80.15920 51 ft 2 kts 159°
2026-04-29 13:27 12.98210 80.15915 52 ft 2 kts 163°
2026-04-29 13:27 12.98226 80.15910 51 ft 2 kts 167°
2026-04-29 13:27 12.98242 80.15906 49 ft 2 kts 166°
2026-04-29 13:28 12.98258 80.15903 49 ft 2 kts 178°
2026-04-29 13:28 12.98275 80.15905 49 ft 2 kts 216°
2026-04-29 13:28 12.98284 80.15919 47 ft 2 kts 250°
2026-04-29 13:28 12.98289 80.15935 52 ft 2 kts 250°
2026-04-29 13:29 12.98295 80.15950 52 ft 2 kts 250°
2026-04-29 13:29 12.98297 80.15958 52 ft 0 kts 250°
2026-04-29 13:31 12.98294 80.15948 52 ft 3 kts 251°
2026-04-29 13:31 12.98290 80.15915 49 ft 6 kts 268°
2026-04-29 13:31 12.98302 80.15860 48 ft 9 kts 288°
2026-04-29 13:31 12.98317 80.15813 49 ft 12 kts 288°
2026-04-29 13:32 12.98342 80.15724 53 ft 14 kts 286°
2026-04-29 13:32 12.98371 80.15616 53 ft 17 kts 283°
2026-04-29 13:32 12.98391 80.15538 50 ft 10 kts 285°
2026-04-29 13:32 12.98422 80.15464 52 ft 13 kts 313°
2026-04-29 13:33 12.98500 80.15520 53 ft 16 kts 69°
2026-04-29 13:33 12.98620 80.15847 52 ft 84 kts 69°
2026-04-29 13:33 12.98796 80.16314 54 ft 123 kts 69°
2026-04-29 13:33 12.99155 80.17281 63 ft 168 kts 72°
2026-04-29 13:34 12.99587 80.18329 689 ft 157 kts 65°
2026-04-29 13:34 13.00336 80.19184 833 ft 175 kts 42°
2026-04-29 13:34 13.01357 80.19994 1294 ft 186 kts 42°
2026-04-29 13:34 13.02370 80.20795 2014 ft 188 kts 42°
2026-04-29 13:35 13.03450 80.21662 2472 ft 205 kts 40°
2026-04-29 13:35 13.05031 80.22931 3032 ft 231 kts 39°
2026-04-29 13:35 13.06351 80.23985 3357 ft 253 kts 39°
2026-04-29 13:35 13.07309 80.24747 3695 ft 261 kts 38°
2026-04-29 13:36 13.08743 80.25887 4490 ft 259 kts 38°
2026-04-29 13:36 13.10143 80.27000 5321 ft 258 kts 38°
2026-04-29 13:36 13.11564 80.28129 6042 ft 259 kts 38°
2026-04-29 13:36 13.13019 80.29286 6419 ft 275 kts 38°
2026-04-29 13:37 13.14582 80.30532 6127 ft 288 kts 38°
2026-04-29 13:37 13.16143 80.31774 6032 ft 280 kts 38°
2026-04-29 13:37 13.17696 80.33011 6019 ft 284 kts 38°
2026-04-29 13:37 13.19761 80.34657 6021 ft 283 kts 38°
2026-04-29 13:38 13.20814 80.35497 6021 ft 284 kts 38°
2026-04-29 13:38 13.22353 80.36723 6024 ft 283 kts 38°
2026-04-29 13:38 13.23909 80.37964 6022 ft 284 kts 38°
2026-04-29 13:38 13.25466 80.39205 6019 ft 284 kts 38°
2026-04-29 13:39 13.27027 80.40450 6020 ft 284 kts 38°
2026-04-29 13:39 13.28586 80.41693 6019 ft 284 kts 38°
2026-04-29 13:39 13.30059 80.43033 6019 ft 283 kts 49°
2026-04-29 13:39 13.31150 80.44709 6019 ft 283 kts 65°
2026-04-29 13:40 13.31886 80.46581 6019 ft 283 kts 69°
2026-04-29 13:40 13.32609 80.48465 6020 ft 283 kts 69°
2026-04-29 13:40 13.33338 80.50341 6022 ft 283 kts 69°
2026-04-29 13:40 13.34061 80.52193 6024 ft 283 kts 69°
2026-04-29 13:41 13.34795 80.54073 6025 ft 283 kts 69°
2026-04-29 13:41 13.35527 80.55951 6022 ft 283 kts 69°
2026-04-29 13:41 13.36259 80.57831 6026 ft 283 kts 69°
2026-04-29 13:41 13.36990 80.59708 6020 ft 284 kts 69°
2026-04-29 13:42 13.37723 80.61590 6027 ft 284 kts 69°
2026-04-29 13:42 13.38456 80.63474 6027 ft 284 kts 69°
2026-04-29 13:42 13.39188 80.65354 6027 ft 284 kts 69°
2026-04-29 13:42 13.39918 80.67233 6028 ft 284 kts 69°
2026-04-29 13:43 13.40651 80.69114 6026 ft 284 kts 69°
2026-04-29 13:43 13.41373 80.70972 6028 ft 284 kts 69°
2026-04-29 13:43 13.42104 80.72853 6033 ft 284 kts 69°
2026-04-29 13:43 13.42837 80.74738 6031 ft 284 kts 69°
2026-04-29 13:44 13.43570 80.76624 6035 ft 284 kts 69°
2026-04-29 13:44 13.44302 80.78511 6032 ft 284 kts 69°
2026-04-29 13:44 13.45034 80.80395 6033 ft 284 kts 69°
2026-04-29 13:44 13.45766 80.82281 6036 ft 284 kts 69°
2026-04-29 13:45 13.46497 80.84165 6037 ft 284 kts 69°
2026-04-29 13:45 13.47230 80.86053 6035 ft 285 kts 69°
2026-04-29 13:45 13.47952 80.87916 6036 ft 284 kts 69°
2026-04-29 13:45 13.48683 80.89802 6038 ft 284 kts 69°
2026-04-29 13:46 13.49416 80.91690 6040 ft 284 kts 69°
2026-04-29 13:46 13.50146 80.93576 6042 ft 284 kts 69°
2026-04-29 13:46 13.50878 80.95464 6044 ft 284 kts 69°
2026-04-29 13:46 13.51608 80.97350 6043 ft 284 kts 69°
2026-04-29 13:47 13.52341 80.99239 6045 ft 285 kts 69°
2026-04-29 13:47 13.53072 81.01125 6042 ft 284 kts 69°
2026-04-29 13:47 13.53793 81.02988 6040 ft 284 kts 69°
2026-04-29 13:47 13.54523 81.04875 6051 ft 284 kts 69°
2026-04-29 13:48 13.55253 81.06762 6046 ft 284 kts 69°
2026-04-29 13:48 13.55983 81.08649 6046 ft 284 kts 69°
2026-04-29 13:48 13.56711 81.10533 6048 ft 284 kts 69°
2026-04-29 13:48 13.57441 81.12422 6046 ft 284 kts 69°
2026-04-29 13:49 13.58170 81.14308 6045 ft 284 kts 69°
2026-04-29 13:49 13.58900 81.16197 6047 ft 284 kts 70°
2026-04-29 13:49 13.59629 81.18083 6048 ft 284 kts 70°
2026-04-29 13:49 13.60347 81.19942 6048 ft 284 kts 70°
2026-04-29 13:50 13.61075 81.21829 6051 ft 284 kts 69°
2026-04-29 13:50 13.61804 81.23720 6050 ft 285 kts 69°
2026-04-29 13:50 13.62535 81.25612 6051 ft 285 kts 70°
2026-04-29 13:50 13.63264 81.27502 6050 ft 284 kts 69°
2026-04-29 13:51 13.63991 81.29388 6050 ft 284 kts 69°
2026-04-29 13:51 13.64721 81.31281 6046 ft 285 kts 69°
2026-04-29 13:51 13.65450 81.33173 6048 ft 284 kts 70°
2026-04-29 13:51 13.66177 81.35061 6053 ft 284 kts 70°
2026-04-29 13:52 13.66904 81.36949 6053 ft 284 kts 69°
2026-04-29 13:52 13.67623 81.38815 6053 ft 285 kts 69°
2026-04-29 13:52 13.68351 81.40708 6055 ft 285 kts 70°
2026-04-29 13:52 13.69081 81.42602 6055 ft 285 kts 70°
2026-04-29 13:53 13.69931 81.44435 6058 ft 285 kts 58°
2026-04-29 13:53 13.71222 81.45990 6057 ft 287 kts 42°
2026-04-29 13:53 13.72800 81.47261 6059 ft 289 kts 38°
2026-04-29 13:53 13.74387 81.48524 6051 ft 288 kts 39°
2026-04-29 13:54 13.75968 81.49793 6056 ft 288 kts 39°
2026-04-29 13:54 13.77866 81.51322 6055 ft 288 kts 39°
2026-04-29 13:54 13.79439 81.52590 6053 ft 288 kts 39°
2026-04-29 13:54 13.81017 81.53863 6058 ft 288 kts 39°
2026-04-29 13:55 13.82592 81.55133 6056 ft 288 kts 39°
2026-04-29 13:55 13.84172 81.56406 6054 ft 288 kts 39°
2026-04-29 13:55 13.85748 81.57678 6060 ft 288 kts 39°
2026-04-29 13:55 13.87325 81.58951 6055 ft 289 kts 39°
2026-04-29 13:56 13.88906 81.60226 6056 ft 289 kts 39°
2026-04-29 13:56 13.90465 81.61483 6053 ft 288 kts 39°
2026-04-29 13:56 13.92042 81.62756 6058 ft 288 kts 39°
2026-04-29 13:56 13.93617 81.64029 6056 ft 288 kts 39°
2026-04-29 13:57 13.95193 81.65302 6057 ft 289 kts 39°
2026-04-29 13:57 13.96771 81.66577 6058 ft 288 kts 39°
2026-04-29 13:57 13.98348 81.67850 6059 ft 289 kts 39°
2026-04-29 13:57 13.99392 81.68694 6052 ft 288 kts 39°
2026-04-29 13:58 14.01504 81.70400 6062 ft 289 kts 39°
2026-04-29 13:58 14.03085 81.71677 6061 ft 289 kts 39°
2026-04-29 13:58 14.04643 81.72936 6058 ft 288 kts 39°
2026-04-29 13:58 14.06222 81.74212 6058 ft 289 kts 39°
2026-04-29 13:59 14.07801 81.75489 6058 ft 288 kts 39°
2026-04-29 13:59 14.09378 81.76765 6057 ft 289 kts 39°
2026-04-29 13:59 14.10965 81.78049 6128 ft 291 kts 39°
2026-04-29 13:59 14.12564 81.79342 6609 ft 292 kts 39°
2026-04-29 14:00 14.14150 81.80625 7557 ft 288 kts 39°
2026-04-29 14:00 14.15727 81.81903 8415 ft 289 kts 38°
2026-04-29 14:00 14.17293 81.83173 9245 ft 291 kts 38°
2026-04-29 14:00 14.18889 81.84467 10054 ft 294 kts 38°
2026-04-29 14:01 14.20553 81.85814 10383 ft 316 kts 38°
2026-04-29 14:01 14.22344 81.87264 10590 ft 338 kts 38°
2026-04-29 14:01 14.24230 81.88791 11071 ft 349 kts 38°
2026-04-29 14:01 14.26144 81.90342 11780 ft 352 kts 38°
2026-04-29 14:02 14.28082 81.91913 12476 ft 357 kts 38°
2026-04-29 14:02 14.30046 81.93505 13155 ft 361 kts 38°
2026-04-29 14:02 14.32035 81.95116 13836 ft 366 kts 38°
2026-04-29 14:02 14.34014 81.96723 14474 ft 368 kts 37°
2026-04-29 14:03 14.36035 81.98365 15097 ft 372 kts 37°
2026-04-29 14:03 14.38075 82.00023 15724 ft 375 kts 36°
2026-04-29 14:03 14.40131 82.01690 16339 ft 378 kts 36°
2026-04-29 14:03 14.42210 82.03375 16947 ft 381 kts 36°
2026-04-29 14:04 14.44301 82.05073 17527 ft 385 kts 36°
2026-04-29 14:04 14.46416 82.06789 18100 ft 388 kts 36°
2026-04-29 14:04 14.48548 82.08521 18582 ft 392 kts 36°
2026-04-29 14:04 14.50674 82.10248 19019 ft 396 kts 36°
2026-04-29 14:05 14.52851 82.12016 19466 ft 401 kts 35°
2026-04-29 14:05 14.55054 82.13807 19922 ft 405 kts 35°
2026-04-29 14:05 14.57279 82.15616 20366 ft 409 kts 35°
2026-04-29 14:05 14.59527 82.17444 20819 ft 413 kts 35°
2026-04-29 14:06 14.61798 82.19292 21259 ft 418 kts 35°
2026-04-29 14:06 14.64090 82.21156 21688 ft 422 kts 35°
2026-04-29 14:06 14.66407 82.23042 22125 ft 426 kts 35°
2026-04-29 14:06 14.68746 82.24946 22566 ft 430 kts 35°
2026-04-29 14:07 14.71072 82.26840 22990 ft 434 kts 34°
2026-04-29 14:07 14.73455 82.28781 23401 ft 438 kts 34°
2026-04-29 14:07 14.75856 82.30737 23777 ft 441 kts 34°
2026-04-29 14:07 14.78272 82.32707 24171 ft 443 kts 34°
2026-04-29 14:08 14.80695 82.34683 24575 ft 445 kts 34°
2026-04-29 14:08 14.83137 82.36674 24951 ft 448 kts 34°
2026-04-29 14:08 14.85587 82.38672 25325 ft 450 kts 34°
2026-04-29 14:08 14.88050 82.40682 25688 ft 453 kts 34°
2026-04-29 14:09 14.90534 82.42710 26049 ft 455 kts 34°
2026-04-29 14:09 14.92993 82.44718 26394 ft 458 kts 34°
2026-04-29 14:09 14.95498 82.46763 26743 ft 460 kts 34°
2026-04-29 14:09 14.98020 82.48823 27080 ft 463 kts 34°
2026-04-29 14:10 15.00553 82.50893 27405 ft 466 kts 34°
2026-04-29 14:10 15.03102 82.52976 27744 ft 468 kts 35°
2026-04-29 14:10 15.05660 82.55067 28070 ft 470 kts 35°
2026-04-29 14:10 15.08234 82.57172 28372 ft 473 kts 35°
2026-04-29 14:11 15.10823 82.59289 28673 ft 475 kts 35°
2026-04-29 14:11 15.13417 82.61413 28976 ft 478 kts 35°
2026-04-29 14:11 15.16001 82.63528 29262 ft 480 kts 35°
2026-04-29 14:11 15.18626 82.65678 29554 ft 483 kts 35°
2026-04-29 14:12 15.21266 82.67840 29845 ft 485 kts 35°
2026-04-29 14:12 15.23921 82.70016 30101 ft 488 kts 35°
2026-04-29 14:12 15.26587 82.72201 30348 ft 490 kts 35°
2026-04-29 14:12 15.29264 82.74397 30596 ft 493 kts 35°
2026-04-29 14:13 15.31954 82.76604 30859 ft 495 kts 35°
2026-04-29 14:13 15.34656 82.78822 31164 ft 495 kts 35°
2026-04-29 14:13 15.37318 82.81008 31496 ft 495 kts 35°
2026-04-29 14:13 15.40017 82.83224 31831 ft 495 kts 34°
2026-04-29 14:14 15.42720 82.85447 32161 ft 495 kts 35°
2026-04-29 14:14 15.45397 82.87692 32492 ft 495 kts 36°
2026-04-29 14:14 15.48067 82.89956 32801 ft 495 kts 36°
2026-04-29 14:14 15.50731 82.92216 33119 ft 495 kts 36°
2026-04-29 14:15 15.53399 82.94476 33405 ft 495 kts 35°
2026-04-29 14:15 15.56068 82.96735 33694 ft 495 kts 35°
2026-04-29 14:15 15.58738 82.98992 33961 ft 495 kts 35°
2026-04-29 14:15 15.61360 83.01209 34255 ft 493 kts 35°
2026-04-29 14:16 15.64012 83.03452 34553 ft 491 kts 35°
2026-04-29 14:16 15.66653 83.05686 34853 ft 489 kts 35°
2026-04-29 14:16 15.69287 83.07914 35116 ft 488 kts 35°
2026-04-29 14:16 15.71911 83.10135 35388 ft 486 kts 35°
2026-04-29 14:17 15.74529 83.12351 35668 ft 485 kts 35°
2026-04-29 14:17 15.77138 83.14562 35934 ft 484 kts 35°
2026-04-29 14:17 15.79742 83.16767 36198 ft 482 kts 35°
2026-04-29 14:17 15.82338 83.18967 36457 ft 481 kts 35°
2026-04-29 14:18 15.84931 83.21166 36710 ft 480 kts 35°
2026-04-29 14:18 15.87486 83.23333 36812 ft 479 kts 35°
2026-04-29 14:18 15.92639 83.27705 36820 ft 478 kts 35°
2026-04-29 14:19 15.97795 83.32082 36824 ft 479 kts 35°
2026-04-29 14:19 16.02948 83.36461 36818 ft 479 kts 35°
2026-04-29 14:20 16.08103 83.40844 36818 ft 478 kts 35°
2026-04-29 14:20 16.13213 83.45193 36821 ft 478 kts 35°
2026-04-29 14:21 16.18359 83.49574 36821 ft 478 kts 35°
2026-04-29 14:21 16.22632 83.53214 36816 ft 477 kts 35°
2026-04-29 14:22 16.28633 83.58332 36813 ft 477 kts 35°
2026-04-29 14:22 16.32895 83.61968 36810 ft 477 kts 35°
2026-04-29 14:23 16.38028 83.66350 36813 ft 477 kts 35°
2026-04-29 14:23 16.43989 83.71444 36810 ft 477 kts 35°
2026-04-29 14:24 16.49113 83.75825 36813 ft 477 kts 35°
2026-04-29 14:24 16.53376 83.79473 36813 ft 477 kts 35°
2026-04-29 14:25 16.58506 83.83865 36817 ft 477 kts 35°
2026-04-29 14:25 16.63633 83.88258 36817 ft 477 kts 35°
2026-04-29 14:26 16.68727 83.92625 36822 ft 477 kts 35°
2026-04-29 14:26 16.73854 83.97025 36818 ft 477 kts 35°
2026-04-29 14:27 16.78978 84.01425 36817 ft 477 kts 35°
2026-04-29 14:28 16.86661 84.08021 36823 ft 477 kts 35°
2026-04-29 14:28 16.91801 84.12391 36819 ft 476 kts 35°
2026-04-29 14:29 16.96901 84.16729 36816 ft 476 kts 35°
2026-04-29 14:29 17.02026 84.21096 36807 ft 476 kts 35°
2026-04-29 14:30 17.07155 84.25471 36818 ft 475 kts 35°
2026-04-29 14:30 17.12275 84.29841 36800 ft 475 kts 35°
2026-04-29 14:31 17.17355 84.34181 36803 ft 475 kts 35°
2026-04-29 14:31 17.22466 84.38549 36800 ft 474 kts 35°
2026-04-29 14:32 17.27576 84.42921 36794 ft 474 kts 35°
2026-04-29 14:32 17.32687 84.47296 36790 ft 475 kts 35°
2026-04-29 14:33 17.37799 84.51673 36792 ft 475 kts 35°
2026-04-29 14:33 17.42890 84.56007 36790 ft 475 kts 35°
2026-04-29 14:34 17.48020 84.60377 36790 ft 476 kts 35°
2026-04-29 14:34 17.53149 84.64752 36791 ft 476 kts 35°
2026-04-29 14:35 17.58255 84.69112 36791 ft 477 kts 35°
2026-04-29 14:35 17.63399 84.73508 36794 ft 477 kts 35°
2026-04-29 14:36 17.68546 84.77911 36798 ft 478 kts 35°
2026-04-29 14:36 17.73695 84.82336 36804 ft 479 kts 35°
2026-04-29 14:37 17.78847 84.86768 36806 ft 479 kts 35°
2026-04-29 14:37 17.83962 84.91171 36796 ft 478 kts 35°
2026-04-29 14:38 17.89084 84.95583 36800 ft 476 kts 35°
2026-04-29 14:38 17.94200 84.99992 36799 ft 476 kts 35°
2026-04-29 14:39 17.99279 85.04373 36800 ft 475 kts 35°
2026-04-29 14:39 18.04380 85.08776 36799 ft 475 kts 36°
2026-04-29 14:40 18.09477 85.13179 36800 ft 474 kts 36°
2026-04-29 14:40 18.14574 85.17586 36802 ft 474 kts 36°
2026-04-29 14:41 18.19668 85.21994 36801 ft 474 kts 36°
2026-04-29 14:41 18.24722 85.26370 36800 ft 474 kts 36°